RYR12EB EGPH-LEVC

Flight info

Callsign RYR12EB
Flight time N/A
Altitude 35000
Route GOSAM P600 FENIK L612 NAVSO DCT AKOMU DCT VAMEB UL612 HON DCT SITET UN859 SOPIL DCT BALAN DCT LMG DCT PIMQO DCT AGN DCT ANETO DCT POSSY DCT ROCME DCT SEROX N860 SAURA
Aircraft B738/M-SDE3FGILRWY/SB1

Departure

Time N/A
Airport Edinburgh Airport (EGPH)

Arrival

Time 2026-05-03 21:26
Airport Valencia Airport (LEVC)
Time Latitude Longitude Altitude Speed Heading
2026-05-03 20:15 46.49536 0.91797 36954 ft 411 kts 188°
2026-05-03 20:15 46.43829 0.91221 36967 ft 412 kts 188°
2026-05-03 20:16 46.38111 0.90645 36974 ft 412 kts 188°
2026-05-03 20:16 46.32388 0.90069 36968 ft 413 kts 188°
2026-05-03 20:17 46.26656 0.89494 36977 ft 413 kts 188°
2026-05-03 20:17 46.20917 0.88920 36969 ft 413 kts 188°
2026-05-03 20:18 46.15212 0.88350 36961 ft 414 kts 188°
2026-05-03 20:18 46.09466 0.87778 36969 ft 414 kts 188°
2026-05-03 20:19 46.03719 0.87206 36971 ft 414 kts 188°
2026-05-03 20:19 45.97966 0.86635 36973 ft 414 kts 188°
2026-05-03 20:20 45.92212 0.86065 36967 ft 415 kts 188°
2026-05-03 20:20 45.86449 0.85495 36971 ft 415 kts 188°
2026-05-03 20:21 45.80727 0.84931 36978 ft 415 kts 188°
2026-05-03 20:21 45.74961 0.84363 36967 ft 416 kts 188°
2026-05-03 20:22 45.69193 0.83797 36982 ft 416 kts 188°
2026-05-03 20:22 45.63417 0.83230 36984 ft 416 kts 188°
2026-05-03 20:23 45.57635 0.82665 36980 ft 417 kts 188°
2026-05-03 20:23 45.51854 0.82100 36980 ft 417 kts 188°
2026-05-03 20:24 45.46104 0.81540 36990 ft 417 kts 188°
2026-05-03 20:24 45.40304 0.80976 36988 ft 418 kts 188°
2026-05-03 20:25 45.34500 0.80413 36986 ft 418 kts 188°
2026-05-03 20:25 45.28695 0.79851 36994 ft 418 kts 188°
2026-05-03 20:26 45.22885 0.79290 36992 ft 419 kts 188°
2026-05-03 20:26 45.17071 0.78729 36981 ft 419 kts 188°
2026-05-03 20:27 45.11300 0.78174 36993 ft 419 kts 188°
2026-05-03 20:27 45.05492 0.77616 36997 ft 418 kts 188°
2026-05-03 20:28 44.99678 0.77059 36995 ft 419 kts 188°
2026-05-03 20:28 44.93865 0.76503 36993 ft 419 kts 188°
2026-05-03 20:29 44.88053 0.75948 36991 ft 419 kts 188°
2026-05-03 20:29 44.82279 0.75399 36991 ft 418 kts 188°
2026-05-03 20:30 44.76473 0.74846 36991 ft 418 kts 188°
2026-05-03 20:30 44.70672 0.74296 36996 ft 417 kts 188°
2026-05-03 20:31 44.64876 0.73747 36992 ft 417 kts 188°
2026-05-03 20:31 44.59126 0.73204 36973 ft 417 kts 188°
2026-05-03 20:32 44.53341 0.72659 36983 ft 416 kts 188°
2026-05-03 20:32 44.47563 0.72115 36987 ft 416 kts 188°
2026-05-03 20:33 44.41781 0.71571 36958 ft 416 kts 188°
2026-05-03 20:33 44.36002 0.71028 36971 ft 416 kts 189°
2026-05-03 20:34 44.30320 0.70031 36988 ft 414 kts 193°
2026-05-03 20:34 44.24634 0.68747 36967 ft 414 kts 193°
2026-05-03 20:35 44.18933 0.67479 36959 ft 415 kts 193°
2026-05-03 20:35 44.13214 0.66254 36961 ft 416 kts 193°
2026-05-03 20:36 44.07527 0.65060 36972 ft 416 kts 192°
2026-05-03 20:36 44.01790 0.63864 36956 ft 417 kts 192°
2026-05-03 20:37 43.96052 0.62670 36968 ft 417 kts 193°
2026-05-03 20:37 43.90307 0.61476 36964 ft 418 kts 193°
2026-05-03 20:38 43.84595 0.60291 36972 ft 418 kts 192°
2026-05-03 20:38 43.78843 0.59100 36961 ft 418 kts 193°
2026-05-03 20:39 43.73095 0.57912 36970 ft 418 kts 193°
2026-05-03 20:39 43.67341 0.56726 36969 ft 418 kts 193°
2026-05-03 20:40 43.61591 0.55542 36957 ft 418 kts 193°
2026-05-03 20:40 43.55875 0.54368 36969 ft 418 kts 193°
2026-05-03 20:41 43.50122 0.53187 36957 ft 418 kts 193°
2026-05-03 20:41 43.44367 0.52009 36962 ft 418 kts 193°
2026-05-03 20:42 43.38606 0.50832 36953 ft 418 kts 193°
2026-05-03 20:42 43.32854 0.49661 36963 ft 418 kts 193°
2026-05-03 20:43 43.27136 0.48497 36960 ft 418 kts 193°
2026-05-03 20:43 43.21384 0.47329 36953 ft 418 kts 193°
2026-05-03 20:44 43.15634 0.46162 36972 ft 418 kts 193°
2026-05-03 20:44 43.09878 0.44998 36981 ft 418 kts 193°
2026-05-03 20:45 43.04153 0.43842 36983 ft 419 kts 193°
2026-05-03 20:45 42.98386 0.42679 36960 ft 418 kts 193°
2026-05-03 20:46 42.92636 0.41523 36982 ft 418 kts 193°
2026-05-03 20:46 42.86879 0.40366 36995 ft 419 kts 193°
2026-05-03 20:47 42.81154 0.39219 36994 ft 418 kts 192°
2026-05-03 20:47 42.75390 0.38065 37018 ft 421 kts 192°
2026-05-03 20:48 42.69599 0.36908 37028 ft 421 kts 192°
2026-05-03 20:48 42.63804 0.35754 37015 ft 420 kts 192°
2026-05-03 20:49 42.58070 0.34614 37017 ft 419 kts 192°
2026-05-03 20:49 42.52314 0.33472 37046 ft 417 kts 192°
2026-05-03 20:50 42.46576 0.32334 37048 ft 417 kts 193°
2026-05-03 20:50 42.40836 0.31197 37036 ft 417 kts 193°
2026-05-03 20:51 42.35087 0.30062 37026 ft 417 kts 193°
2026-05-03 20:51 42.29375 0.28935 37036 ft 418 kts 193°
2026-05-03 20:52 42.23612 0.27802 37026 ft 419 kts 193°
2026-05-03 20:52 42.17836 0.26667 37010 ft 420 kts 193°
2026-05-03 20:53 42.12046 0.25533 37025 ft 421 kts 193°
2026-05-03 20:53 42.06283 0.24405 37022 ft 422 kts 193°
2026-05-03 20:54 42.00470 0.23269 37018 ft 423 kts 193°
2026-05-03 20:54 41.91723 0.21565 37023 ft 424 kts 193°
2026-05-03 20:55 41.85877 0.20428 37010 ft 425 kts 193°
2026-05-03 20:55 41.80065 0.19300 36999 ft 425 kts 193°
2026-05-03 20:56 41.74174 0.18413 36990 ft 430 kts 184°
2026-05-03 20:56 41.68163 0.18927 37000 ft 434 kts 181°
2026-05-03 20:57 41.62142 0.19507 37003 ft 434 kts 181°
2026-05-03 20:57 41.56118 0.20042 37000 ft 434 kts 181°
2026-05-03 20:58 41.50124 0.20554 36995 ft 434 kts 181°
2026-05-03 20:58 41.44095 0.21067 37001 ft 434 kts 181°
2026-05-03 20:59 41.38063 0.21580 36997 ft 434 kts 181°
2026-05-03 20:59 41.32096 0.21365 36990 ft 423 kts 196°
2026-05-03 21:00 41.28284 0.20340 36991 ft 422 kts 196°
2026-05-03 21:00 41.20567 0.18383 36470 ft 428 kts 195°
2026-05-03 21:01 41.17647 0.17673 35910 ft 426 kts 195°
2026-05-03 21:01 41.14735 0.16962 35306 ft 425 kts 195°
2026-05-03 21:01 41.11844 0.16170 34658 ft 423 kts 199°
2026-05-03 21:01 41.09023 0.15082 34038 ft 422 kts 201°
2026-05-03 21:02 41.06229 0.13915 33490 ft 419 kts 201°
2026-05-03 21:02 41.04399 0.13142 33154 ft 416 kts 201°
2026-05-03 21:02 41.01657 0.11995 32676 ft 411 kts 201°
2026-05-03 21:02 40.98058 0.10518 32065 ft 406 kts 201°
2026-05-03 21:03 40.95374 0.09432 31621 ft 402 kts 200°
2026-05-03 21:03 40.92714 0.08361 31175 ft 398 kts 200°
2026-05-03 21:03 40.90078 0.07303 30724 ft 394 kts 200°
2026-05-03 21:03 40.87470 0.06256 30306 ft 390 kts 200°
2026-05-03 21:04 40.85755 0.05568 30012 ft 388 kts 200°
2026-05-03 21:04 40.83179 0.04537 29520 ft 385 kts 200°
2026-05-03 21:04 40.80632 0.03518 29066 ft 380 kts 200°
2026-05-03 21:04 40.78117 0.02512 28630 ft 376 kts 200°
2026-05-03 21:05 40.75621 0.01514 28167 ft 373 kts 200°
2026-05-03 21:05 40.72362 0.00212 27610 ft 367 kts 200°
2026-05-03 21:05 40.69925 -0.00762 27170 ft 364 kts 200°
2026-05-03 21:05 40.68323 -0.01401 26883 ft 363 kts 200°
2026-05-03 21:06 40.65917 -0.02361 26456 ft 360 kts 200°
2026-05-03 21:06 40.63534 -0.03312 26041 ft 357 kts 200°
2026-05-03 21:06 40.61167 -0.04256 25614 ft 354 kts 200°
2026-05-03 21:06 40.58815 -0.05191 25199 ft 352 kts 200°
2026-05-03 21:07 40.56473 -0.06122 24788 ft 350 kts 200°
2026-05-03 21:07 40.54147 -0.07046 24377 ft 349 kts 200°
2026-05-03 21:07 40.51827 -0.07966 23965 ft 347 kts 200°
2026-05-03 21:07 40.49515 -0.08883 23521 ft 347 kts 200°
2026-05-03 21:08 40.47212 -0.09796 23032 ft 345 kts 200°
2026-05-03 21:08 40.44952 -0.10691 22594 ft 343 kts 200°
2026-05-03 21:08 40.42676 -0.11591 22168 ft 340 kts 200°
2026-05-03 21:08 40.40420 -0.12484 21762 ft 338 kts 200°
2026-05-03 21:09 40.38181 -0.13370 21337 ft 335 kts 200°
2026-05-03 21:09 40.35956 -0.14249 20942 ft 333 kts 200°
2026-05-03 21:09 40.33747 -0.15122 20544 ft 331 kts 200°
2026-05-03 21:09 40.31549 -0.15990 20140 ft 329 kts 200°
2026-05-03 21:10 40.29369 -0.16850 19754 ft 327 kts 200°
2026-05-03 21:10 40.27196 -0.17707 19360 ft 325 kts 200°
2026-05-03 21:10 40.25063 -0.18548 18959 ft 324 kts 200°
2026-05-03 21:10 40.22919 -0.19418 18581 ft 322 kts 201°
2026-05-03 21:11 40.20786 -0.20293 18180 ft 321 kts 201°
2026-05-03 21:11 40.18662 -0.21166 17748 ft 319 kts 201°
2026-05-03 21:11 40.16552 -0.22031 17345 ft 317 kts 200°
2026-05-03 21:11 40.14455 -0.22891 16944 ft 314 kts 200°
2026-05-03 21:12 40.12376 -0.23740 16571 ft 312 kts 200°
2026-05-03 21:12 40.10307 -0.24585 16189 ft 311 kts 200°
2026-05-03 21:12 40.08250 -0.25425 15789 ft 310 kts 200°
2026-05-03 21:12 40.06209 -0.26258 15056 ft 314 kts 200°
2026-05-03 21:13 40.04122 -0.27109 14534 ft 312 kts 200°
2026-05-03 21:13 40.02066 -0.27945 14086 ft 306 kts 200°
2026-05-03 21:13 40.00038 -0.28768 13709 ft 305 kts 199°
2026-05-03 21:13 39.97998 -0.29549 13231 ft 306 kts 198°
2026-05-03 21:14 39.95956 -0.30298 12839 ft 304 kts 198°
2026-05-03 21:14 39.93924 -0.31037 12463 ft 302 kts 198°
2026-05-03 21:14 39.91910 -0.31772 12200 ft 296 kts 198°
2026-05-03 21:14 39.89963 -0.32485 12079 ft 287 kts 198°
2026-05-03 21:15 39.88101 -0.33167 11926 ft 277 kts 199°
2026-05-03 21:15 39.86291 -0.33836 11866 ft 265 kts 200°
2026-05-03 21:15 39.84689 -0.34994 11154 ft 272 kts 228°
2026-05-03 21:15 39.83595 -0.37065 10584 ft 281 kts 237°
2026-05-03 21:16 39.82537 -0.39181 10397 ft 275 kts 237°
2026-05-03 21:16 39.81492 -0.41230 10204 ft 269 kts 237°
2026-05-03 21:16 39.80453 -0.43248 9877 ft 268 kts 236°
2026-05-03 21:16 39.79410 -0.45262 9503 ft 269 kts 236°
2026-05-03 21:17 39.78363 -0.47276 9171 ft 268 kts 236°
2026-05-03 21:17 39.77320 -0.49275 8872 ft 266 kts 236°
2026-05-03 21:17 39.76296 -0.51235 8553 ft 265 kts 236°
2026-05-03 21:17 39.75263 -0.53209 8262 ft 264 kts 236°
2026-05-03 21:18 39.74232 -0.55176 8009 ft 258 kts 236°
2026-05-03 21:18 39.73249 -0.57049 7918 ft 244 kts 237°
2026-05-03 21:18 39.72315 -0.58827 7819 ft 232 kts 237°
2026-05-03 21:18 39.71430 -0.60512 7711 ft 220 kts 237°
2026-05-03 21:19 39.70574 -0.62141 7451 ft 216 kts 237°
2026-05-03 21:19 39.69733 -0.63740 7214 ft 213 kts 237°
2026-05-03 21:19 39.68896 -0.65334 6974 ft 214 kts 237°
2026-05-03 21:19 39.68065 -0.66912 6748 ft 207 kts 237°
2026-05-03 21:20 39.67281 -0.68401 6526 ft 200 kts 237°
2026-05-03 21:20 39.66497 -0.69889 6085 ft 202 kts 237°
2026-05-03 21:20 39.65704 -0.71394 5642 ft 203 kts 236°
2026-05-03 21:20 39.64919 -0.72853 5493 ft 193 kts 231°
2026-05-03 21:21 39.63810 -0.73811 5333 ft 197 kts 195°
2026-05-03 21:21 39.62461 -0.73677 5115 ft 198 kts 159°
2026-05-03 21:21 39.61274 -0.72819 4927 ft 192 kts 152°
2026-05-03 21:21 39.60153 -0.71919 4652 ft 188 kts 151°
2026-05-03 21:22 39.59035 -0.71025 4273 ft 189 kts 151°
2026-05-03 21:22 39.57919 -0.70153 3908 ft 190 kts 151°
2026-05-03 21:22 39.56910 -0.69161 3732 ft 180 kts 126°
2026-05-03 21:22 39.56384 -0.67690 3405 ft 181 kts 116°
2026-05-03 21:23 39.55814 -0.66203 3019 ft 186 kts 118°
2026-05-03 21:23 39.55236 -0.64719 2754 ft 183 kts 117°
2026-05-03 21:23 39.54675 -0.63256 2507 ft 180 kts 116°
2026-05-03 21:23 39.54127 -0.61820 2266 ft 176 kts 116°
2026-05-03 21:24 39.53592 -0.60414 2030 ft 173 kts 116°
2026-05-03 21:24 39.53066 -0.59034 1805 ft 169 kts 115°
2026-05-03 21:24 39.52557 -0.57698 1587 ft 166 kts 116°
2026-05-03 21:24 39.52056 -0.56385 1368 ft 158 kts 115°
2026-05-03 21:25 39.51582 -0.55138 1174 ft 155 kts 115°
2026-05-03 21:25 39.51108 -0.53892 961 ft 153 kts 115°
2026-05-03 21:25 39.50639 -0.52661 755 ft 153 kts 115°
2026-05-03 21:25 39.50176 -0.51428 557 ft 152 kts 116°
2026-05-03 21:26 39.49709 -0.50207 322 ft 151 kts 116°
2026-05-03 21:26 39.49258 -0.49019 223 ft 137 kts 115°
2026-05-03 21:26 39.48913 -0.48113 211 ft 82 kts 116°
2026-05-03 21:26 39.48752 -0.47689 203 ft 47 kts 116°
2026-05-03 21:27 39.48651 -0.47414 194 ft 21 kts 106°
2026-05-03 21:27 39.48654 -0.47290 189 ft 10 kts 78°
2026-05-03 21:27 39.48687 -0.47215 194 ft 10 kts 45°
2026-05-03 21:27 39.48748 -0.47178 194 ft 10 kts
2026-05-03 21:28 39.48812 -0.47199 187 ft 10 kts 334°
2026-05-03 21:28 39.48868 -0.47231 191 ft 7 kts 341°
2026-05-03 21:28 39.48911 -0.47254 187 ft 6 kts 322°
2026-05-03 21:28 39.48932 -0.47303 192 ft 6 kts 296°
2026-05-03 21:29 39.48950 -0.47349 200 ft 4 kts 295°
2026-05-03 21:29 39.48969 -0.47368 202 ft 4 kts 356°
2026-05-03 21:29 39.48995 -0.47352 194 ft 4 kts 28°
2026-05-03 21:29 39.49014 -0.47343 199 ft 1 kts 16°
2026-05-03 21:30 39.49015 -0.47342 198 ft 0 kts 17°
2026-05-03 21:31 39.49043 -0.47334 205 ft 0 kts 12°